Regional Weather Roundup
Issued by NWS Goodland, KS

Home | Current Version | Previous Version | Graphics & Text | Print | Product List | Glossary On
Versions: 1 2 3 4 5 6 7 8 9 10 11 12 13 14 15 16 17 18 19 20 21 22 23 24 25 26 27 28 29 30 31 32 33 34 35 36 37 38 39 40 41 42 43 44 45 46 47 48 49 50
200
ASUS43 KGLD 251108
RWRGLD

GOODLAND FORECAST AREA HOURLY WEATHER ROUNDUP
NATIONAL WEATHER SERVICE GOODLAND KS
500 AM MDT THU AUG 25 2016

...OFFICIAL OBSERVATIONS...

CITY           SKY/WX    TMP DP  RH WIND       PRES   REMARKS
GOODLAND KS    PTCLDY    50  47  89 N5        30.18S
HILL CITY KS   LGT RAIN  59  57  93 N6        30.12F
IMPERIAL NEB   MOCLDY    53  47  79 N5        30.19R
MCCOOK NEB     MOCLDY    56  51  84 NW8       30.16S
AKRON CO       CLEAR     50  37  61 SE8       30.22F
BURLINGTON CO  PTCLDY    54  44  69 N5        30.21R
LIMON CO       CLOUDY    38  32  79 N5        30.25R
$$

...UNOFFICIAL OBSERVATIONS...

CITY           SKY/WX    TMP DP  RH WIND       PRES   REMARKS
COLBY KS       MOCLDY    57  54  88 N5        30.18S
NORTON KS      CLOUDY    57  52  82 CALM      30.12F
SHARON SPRINGS   N/A     57  54  89 E5          N/A
KIT CARSON CO    N/A     54  42  64 CALM        N/A
YUMA CO          N/A     44  40  85 CALM        N/A
$$




USA.gov is the U.S. government's official web portal to all federal, state and local government web resources and services.